QPF
0.01 0.01 0.01 0.01 0.02 0.02 0.02 0.01 0.01 0.02 0.02 0.02 0.03 0.02 0.02 0.03 0.02 0.02 0.03 0.02 0.02 0.02 0.02 0.03 0.02 0.02 0.02 0.02 0.03 0.06 0.08 0.05 0.06 0.07 0.07 0.05 0.05 0.05 0.04 0.04 0.05 0.06 0.06
0.01 0.01 0.01 0.02 0.02 0.02 0.02 0.02 0.01 0.01 0.02 0.03 0.02 0.02 0.03 0.03 0.02 0.02 0.02 0.02 0.02 0.02 0.03 0.04 0.04 0.03 0.02 0.02 0.04 0.06 0.07 0.06 0.06 0.06 0.05 0.03 0.03 0.04 0.04 0.06 0.06 0.07 0.07
0.01 0.01 0.01 0.02 0.02 0.03 0.02 0.02 0.02 0.01 0.03 0.03 0.02 0.02 0.02 0.03 0.03 0.02 0.02 0.02 0.02 0.02 0.03 0.03 0.03 0.03 0.02 0.03 0.05 0.05 0.06 0.06 0.05 0.04 0.04 0.03 0.03 0.05 0.06 0.08 0.08 0.08 0.07
0.01 0.01 0.01 0.02 0.02 0.02 0.01 0.02 0.02 0.02 0.03 0.03 0.02 0.02 0.02 0.03 0.02 0.02 0.03 0.03 0.03 0.03 0.05 0.03 0.03 0.05 0.05 0.04 0.05 0.04 0.05 0.06 0.05 0.04 0.04 0.04 0.03 0.04 0.06 0.07 0.08 0.08 0.08
0.00 0.00 0.01 0.01 0.02 0.02 0.02 0.02 0.02 0.02 0.03 0.03 0.02 0.02 0.02 0.02 0.03 0.03 0.02 0.02 0.02 0.03 0.04 0.03 0.04 0.04 0.05 0.04 0.03 0.03 0.04 0.05 0.05 0.05 0.05 0.04 0.04 0.04 0.05 0.07 0.09 0.10 0.09
0.01 0.01 0.01 0.02 0.02 0.01 0.02 0.02 0.02 0.03 0.03 0.03 0.02 0.02 0.03 0.03 0.04 0.03 0.03 0.02 0.02 0.03 0.03 0.02 0.03 0.04 0.05 0.05 0.05 0.05 0.04 0.03 0.03 0.04 0.04 0.04 0.05 0.06 0.05 0.05 0.07 0.08 0.07
0.04 0.06 0.03 0.02 0.01 0.01 0.01 0.01 0.02 0.03 0.04 0.02 0.02 0.02 0.01 0.02 0.03 0.03 0.04 0.03 0.03 0.03 0.03 0.04 0.04 0.05 0.06 0.07 0.07 0.06 0.03 0.03 0.04 0.04 0.04 0.03 0.05 0.06 0.05 0.06 0.05 0.04 0.03
0.07 0.13 0.05 0.02 0.01 0.01 0.01 0.01 0.02 0.03 0.04 0.02 0.01 0.01 0.02 0.02 0.02 0.03 0.03 0.04 0.04 0.05 0.06 0.07 0.08 0.08 0.08 0.09 0.07 0.06 0.05 0.04 0.05 0.06 0.06 0.05 0.06 0.07 0.07 0.06 0.05 0.04 0.04
0.06 0.08 0.04 0.01 0.01 0.01 0.01 0.01 0.01 0.02 0.03 0.01 0.00 0.00 0.01 0.02 0.02 0.02 0.03 0.04 0.05 0.05 0.06 0.07 0.09 0.08 0.08 0.09 0.08 0.06 0.06 0.07 0.07 0.06 0.07 0.05 0.04 0.05 0.07 0.05 0.05 0.05 0.05
0.09 0.06 0.03 0.01 0.01 0.00 0.00 0.00 0.00 0.01 0.01 0.00 0.00 0.00 0.00 0.00 0.01 0.01 0.03 0.04 0.05 0.05 0.05 0.05 0.06 0.06 0.06 0.07 0.07 0.06 0.07 0.07 0.06 0.06 0.06 0.04 0.03 0.03 0.04 0.05 0.08 0.08 0.06
0.01 0.02 0.01 0.00 0.00 0.00 0.00 0.00 0.00 0.00 0.00 0.00 0.01 0.01 0.00 0.01 0.01 0.01 0.02 0.02 0.03 0.05 0.08 0.10 0.11 0.10 0.07 0.07 0.06 0.05 0.06 0.06 0.06 0.07 0.07 0.06 0.05 0.05 0.05 0.05 0.06 0.06 0.06
0.01 0.01 0.00 0.00 0.00 0.00 0.00 0.00 0.00 0.01 0.01 0.01 0.01 0.01 0.00 0.01 0.01 0.01 0.01 0.02 0.03 0.05 0.05 0.07 0.11 0.12 0.11 0.08 0.06 0.05 0.05 0.05 0.06 0.06 0.07 0.05 0.06 0.06 0.05 0.05 0.05 0.05 0.05
0.00 0.00 0.00 0.00 0.00 0.00 0.00 0.00 0.01 0.00 0.01 0.01 0.01 0.01 0.01 0.01 0.01 0.01 0.02 0.04 0.03 0.02 0.03 0.04 0.05 0.05 0.06 0.05 0.05 0.05 0.05 0.05 0.05 0.05 0.05 0.04 0.05 0.05 0.05 0.05 0.04 0.04 0.04
0.00 0.00 0.00 0.00 0.01 0.01 0.01 0.01 0.01 0.01 0.00 0.00 0.01 0.01 0.03 0.03 0.03 0.02 0.02 0.04 0.04 0.03 0.03 0.04 0.04 0.03 0.03 0.03 0.03 0.03 0.03 0.04 0.04 0.03 0.04 0.04 0.03 0.03 0.03 0.03 0.03 0.03 0.03
0.00 0.00 0.00 0.00 0.01 0.01 0.01 0.02 0.01 0.01 0.00 0.00 0.01 0.04 0.06 0.04 0.03 0.03 0.03 0.03 0.04 0.04 0.04 0.04 0.04 0.03 0.01 0.01 0.01 0.01 0.01 0.01 0.01 0.01 0.01 0.01 0.01 0.02 0.02 0.01 0.02 0.03 0.04
0.00 0.00 0.00 0.01 0.01 0.01 0.03 0.06 0.03 0.01 0.01 0.01 0.03 0.07 0.07 0.04 0.03 0.03 0.04 0.05 0.05 0.04 0.02 0.02 0.02 0.02 0.01 0.01 0.01 0.01 0.01 0.00 0.01 0.01 0.01 0.01 0.01 0.02 0.02 0.01 0.02 0.03 0.03
0.01 0.01 0.01 0.01 0.01 0.01 0.01 0.02 0.02 0.02 0.02 0.02 0.04 0.05 0.05 0.04 0.03 0.04 0.05 0.05 0.05 0.04 0.02 0.01 0.01 0.01 0.01 0.01 0.01 0.01 0.01 0.00 0.01 0.01 0.02 0.01 0.01 0.02 0.03 0.02 0.02 0.02 0.03
0.01 0.01 0.01 0.01 0.01 0.02 0.02 0.04 0.06 0.04 0.04 0.04 0.04 0.05 0.05 0.04 0.04 0.04 0.05 0.04 0.04 0.03 0.01 0.01 0.01 0.00 0.00 0.01 0.01 0.00 0.00 0.00 0.01 0.01 0.02 0.01 0.01 0.01 0.02 0.02 0.02 0.04 0.05
0.01 0.01 0.01 0.01 0.01 0.02 0.03 0.04 0.07 0.06 0.07 0.06 0.04 0.04 0.04 0.05 0.05 0.06 0.06 0.06 0.04 0.02 0.01 0.01 0.00 0.00 0.00 0.00 0.00 0.00 0.00 0.00 0.00 0.00 0.01 0.01 0.01 0.01 0.02 0.02 0.02 0.03 0.04
0.01 0.01 0.02 0.02 0.02 0.04 0.05 0.06 0.07 0.08 0.09 0.10 0.08 0.06 0.05 0.05 0.04 0.04 0.03 0.03 0.02 0.01 0.01 0.00 0.00 0.00 0.00 0.00 0.00 0.00 0.01 0.01 0.01 0.00 0.00 0.00 0.00 0.01 0.01 0.01 0.02 0.02 0.02
0.02 0.01 0.02 0.03 0.04 0.07 0.10 0.11 0.09 0.09 0.11 0.12 0.12 0.13 0.12 0.10 0.05 0.03 0.02 0.02 0.01 0.00 0.00 0.00 0.00 0.00 0.00 0.00 0.01 0.01 0.01 0.01 0.01 0.01 0.00 0.00 0.00 0.01 0.01 0.01 0.01 0.02 0.03
0.01 0.01 0.03 0.05 0.08 0.14 0.18 0.14 0.10 0.10 0.12 0.13 0.13 0.13 0.12 0.11 0.08 0.04 0.03 0.02 0.01 0.00 0.00 0.00 0.00 0.00 0.00 0.00 0.01 0.02 0.01 0.01 0.00 0.00 0.00 0.00 0.00 0.00 0.01 0.01 0.01 0.01 0.00
0.01 0.02 0.03 0.04 0.07 0.10 0.11 0.10 0.09 0.10 0.11 0.11 0.09 0.08 0.08 0.07 0.06 0.05 0.03 0.02 0.02 0.01 0.01 0.02 0.02 0.02 0.02 0.02 0.02 0.01 0.01 0.00 0.00 0.00 0.00 0.00 0.00 0.00 0.00 0.00 0.00 0.00 0.00
0.03 0.03 0.04 0.04 0.05 0.08 0.08 0.08 0.07 0.08 0.11 0.10 0.08 0.09 0.10 0.12 0.11 0.07 0.07 0.06 0.05 0.04 0.03 0.03 0.03 0.04 0.04 0.04 0.03 0.03 0.03 0.02 0.01 0.00 0.00 0.00 0.00 0.00 0.00 0.00 0.00 0.00 0.00
0.06 0.07 0.07 0.07 0.07 0.06 0.07 0.07 0.08 0.09 0.12 0.12 0.12 0.11 0.09 0.08 0.13 0.10 0.08 0.07 0.06 0.05 0.04 0.04 0.04 0.04 0.05 0.05 0.06 0.07 0.06 0.04 0.02 0.01 0.00 0.00 0.00 0.00 0.00 0.00 0.00 0.00 0.00
0.11 0.12 0.12 0.13 0.14 0.12 0.10 0.11 0.13 0.14 0.14 0.15 0.17 0.14 0.09 0.07 0.07 0.05 0.05 0.05 0.04 0.04 0.03 0.03 0.04 0.05 0.05 0.04 0.04 0.03 0.03 0.02 0.01 0.00 0.00 0.00 0.00 0.00 0.00 0.00 0.00 0.00 0.01
MSLP
1015.62 1015.71 1015.75 1015.74 1015.71 1015.67 1015.66 1015.70 1015.80 1015.94 1016.10 1016.26 1016.40 1016.47 1016.48 1016.43 1016.33 1016.22 1016.12 1016.07 1016.07 1016.13 1016.24 1016.40 1016.58 1016.77 1016.96 1017.15 1017.34 1017.54 1017.74 1017.96 1018.18 1018.40 1018.61 1018.78 1018.91 1018.99 1019.02 1019.02 1018.99 1018.96 1018.94
1015.59 1015.74 1015.82 1015.83 1015.79 1015.72 1015.66 1015.66 1015.72 1015.85 1016.03 1016.23 1016.40 1016.52 1016.55 1016.51 1016.39 1016.24 1016.09 1015.97 1015.91 1015.92 1016.00 1016.14 1016.31 1016.49 1016.67 1016.85 1017.02 1017.20 1017.40 1017.62 1017.87 1018.13 1018.40 1018.64 1018.84 1018.98 1019.06 1019.08 1019.05 1018.99 1018.92
1015.34 1015.56 1015.70 1015.76 1015.73 1015.65 1015.58 1015.55 1015.59 1015.72 1015.92 1016.16 1016.38 1016.55 1016.63 1016.61 1016.50 1016.33 1016.14 1015.97 1015.86 1015.83 1015.86 1015.96 1016.09 1016.24 1016.39 1016.53 1016.66 1016.81 1016.98 1017.20 1017.47 1017.77 1018.10 1018.42 1018.71 1018.94 1019.08 1019.15 1019.13 1019.07 1018.97
1014.89 1015.19 1015.41 1015.53 1015.55 1015.49 1015.42 1015.38 1015.43 1015.57 1015.79 1016.07 1016.35 1016.57 1016.70 1016.72 1016.64 1016.47 1016.27 1016.07 1015.92 1015.84 1015.83 1015.88 1015.96 1016.06 1016.14 1016.22 1016.30 1016.39 1016.53 1016.73 1017.00 1017.34 1017.73 1018.12 1018.49 1018.80 1019.02 1019.14 1019.17 1019.13 1019.05
1014.32 1014.69 1015.01 1015.21 1015.29 1015.28 1015.23 1015.20 1015.25 1015.40 1015.65 1015.96 1016.29 1016.57 1016.77 1016.84 1016.79 1016.65 1016.45 1016.25 1016.08 1015.96 1015.91 1015.90 1015.93 1015.96 1015.97 1015.98 1015.98 1016.01 1016.10 1016.26 1016.52 1016.87 1017.29 1017.74 1018.17 1018.55 1018.83 1019.02 1019.10 1019.11 1019.07
1013.72 1014.18 1014.58 1014.87 1015.02 1015.06 1015.05 1015.04 1015.10 1015.26 1015.52 1015.87 1016.24 1016.57 1016.82 1016.95 1016.96 1016.86 1016.68 1016.49 1016.31 1016.17 1016.08 1016.03 1016.00 1015.96 1015.90 1015.83 1015.76 1015.72 1015.74 1015.85 1016.08 1016.40 1016.82 1017.28 1017.73 1018.15 1018.49 1018.73 1018.88 1018.95 1018.98
1013.19 1013.72 1014.20 1014.57 1014.80 1014.89 1014.91 1014.92 1014.98 1015.15 1015.43 1015.79 1016.20 1016.58 1016.88 1017.07 1017.14 1017.08 1016.95 1016.78 1016.60 1016.45 1016.34 1016.25 1016.16 1016.07 1015.95 1015.81 1015.67 1015.55 1015.50 1015.55 1015.71 1015.98 1016.35 1016.78 1017.23 1017.64 1018.00 1018.29 1018.50 1018.65 1018.77
1012.79 1013.37 1013.92 1014.35 1014.63 1014.77 1014.82 1014.84 1014.91 1015.08 1015.37 1015.75 1016.18 1016.60 1016.96 1017.21 1017.33 1017.33 1017.24 1017.10 1016.94 1016.79 1016.66 1016.55 1016.43 1016.29 1016.12 1015.93 1015.73 1015.55 1015.43 1015.40 1015.47 1015.67 1015.96 1016.31 1016.70 1017.09 1017.44 1017.74 1017.99 1018.22 1018.44
1012.51 1013.13 1013.72 1014.20 1014.51 1014.67 1014.74 1014.77 1014.85 1015.03 1015.33 1015.73 1016.20 1016.66 1017.07 1017.37 1017.54 1017.60 1017.55 1017.45 1017.31 1017.16 1017.03 1016.90 1016.77 1016.61 1016.41 1016.19 1015.95 1015.72 1015.53 1015.42 1015.41 1015.50 1015.69 1015.95 1016.24 1016.56 1016.87 1017.16 1017.44 1017.73 1018.05
1012.34 1012.96 1013.56 1014.04 1014.37 1014.55 1014.62 1014.67 1014.77 1014.97 1015.29 1015.73 1016.23 1016.73 1017.19 1017.54 1017.77 1017.87 1017.87 1017.79 1017.68 1017.55 1017.42 1017.29 1017.15 1016.99 1016.79 1016.56 1016.30 1016.05 1015.82 1015.64 1015.55 1015.54 1015.61 1015.75 1015.93 1016.15 1016.40 1016.65 1016.94 1017.27 1017.66
1012.19 1012.80 1013.37 1013.83 1014.14 1014.32 1014.41 1014.48 1014.62 1014.86 1015.23 1015.71 1016.26 1016.81 1017.32 1017.72 1017.99 1018.13 1018.16 1018.11 1018.01 1017.90 1017.78 1017.66 1017.54 1017.40 1017.22 1017.01 1016.76 1016.51 1016.26 1016.04 1015.88 1015.78 1015.74 1015.76 1015.83 1015.95 1016.10 1016.31 1016.58 1016.92 1017.35
1012.02 1012.56 1013.08 1013.49 1013.77 1013.94 1014.05 1014.17 1014.36 1014.67 1015.10 1015.65 1016.26 1016.87 1017.42 1017.87 1018.18 1018.34 1018.40 1018.36 1018.28 1018.17 1018.07 1017.98 1017.88 1017.77 1017.64 1017.47 1017.27 1017.04 1016.80 1016.57 1016.36 1016.20 1016.07 1015.99 1015.95 1015.96 1016.04 1016.17 1016.40 1016.72 1017.16
1011.77 1012.22 1012.65 1013.00 1013.24 1013.42 1013.56 1013.73 1014.00 1014.39 1014.91 1015.54 1016.21 1016.88 1017.47 1017.95 1018.28 1018.46 1018.53 1018.50 1018.43 1018.34 1018.26 1018.19 1018.14 1018.08 1018.00 1017.89 1017.75 1017.57 1017.37 1017.15 1016.94 1016.73 1016.55 1016.39 1016.27 1016.20 1016.19 1016.25 1016.41 1016.69 1017.10
1011.43 1011.77 1012.10 1012.37 1012.58 1012.76 1012.95 1013.19 1013.55 1014.04 1014.65 1015.36 1016.09 1016.80 1017.43 1017.92 1018.26 1018.46 1018.52 1018.51 1018.44 1018.37 1018.31 1018.28 1018.26 1018.26 1018.25 1018.22 1018.15 1018.04 1017.89 1017.71 1017.52 1017.31 1017.10 1016.91 1016.73 1016.60 1016.51 1016.51 1016.61 1016.82 1017.17
1011.04 1011.24 1011.46 1011.66 1011.84 1012.03 1012.27 1012.60 1013.05 1013.64 1014.33 1015.10 1015.89 1016.63 1017.27 1017.77 1018.11 1018.29 1018.36 1018.35 1018.30 1018.25 1018.21 1018.22 1018.25 1018.31 1018.36 1018.40 1018.40 1018.37 1018.29 1018.17 1018.02 1017.84 1017.65 1017.44 1017.25 1017.08 1016.95 1016.89 1016.93 1017.07 1017.34
1010.62 1010.69 1010.80 1010.92 1011.08 1011.29 1011.58 1011.98 1012.52 1013.18 1013.95 1014.76 1015.58 1016.33 1016.96 1017.46 1017.79 1017.98 1018.05 1018.05 1018.02 1017.99 1017.99 1018.03 1018.11 1018.21 1018.32 1018.42 1018.49 1018.53 1018.52 1018.47 1018.38 1018.25 1018.10 1017.93 1017.75 1017.58 1017.44 1017.35 1017.32 1017.40 1017.58
1010.23 1010.18 1010.18 1010.24 1010.37 1010.59 1010.92 1011.38 1011.98 1012.69 1013.49 1014.33 1015.14 1015.88 1016.51 1016.99 1017.32 1017.52 1017.61 1017.64 1017.64 1017.65 1017.68 1017.76 1017.87 1018.01 1018.16 1018.30 1018.42 1018.51 1018.56 1018.58 1018.56 1018.50 1018.42 1018.31 1018.18 1018.04 1017.91 1017.81 1017.76 1017.78 1017.89
1009.93 1009.75 1009.65 1009.65 1009.75 1009.96 1010.31 1010.79 1011.41 1012.14 1012.94 1013.77 1014.56 1015.29 1015.90 1016.38 1016.72 1016.95 1017.08 1017.16 1017.21 1017.27 1017.34 1017.45 1017.58 1017.73 1017.90 1018.05 1018.20 1018.33 1018.43 1018.51 1018.56 1018.58 1018.58 1018.55 1018.49 1018.41 1018.33 1018.25 1018.20 1018.19 1018.25
1009.74 1009.44 1009.25 1009.18 1009.23 1009.41 1009.74 1010.21 1010.81 1011.51 1012.28 1013.07 1013.84 1014.55 1015.16 1015.65 1016.04 1016.32 1016.53 1016.68 1016.80 1016.91 1017.03 1017.16 1017.30 1017.45 1017.60 1017.75 1017.89 1018.03 1018.16 1018.28 1018.40 1018.51 1018.59 1018.66 1018.69 1018.70 1018.69 1018.66 1018.63 1018.62 1018.65
1009.66 1009.26 1008.97 1008.81 1008.79 1008.92 1009.19 1009.60 1010.14 1010.79 1011.50 1012.25 1012.98 1013.68 1014.31 1014.86 1015.32 1015.69 1016.00 1016.25 1016.46 1016.64 1016.80 1016.94 1017.07 1017.20 1017.32 1017.43 1017.55 1017.68 1017.82 1017.98 1018.15 1018.33 1018.51 1018.67 1018.81 1018.91 1018.97 1019.01 1019.03 1019.04 1019.06
1009.71 1009.20 1008.81 1008.55 1008.44 1008.46 1008.64 1008.96 1009.42 1009.98 1010.62 1011.32 1012.04 1012.74 1013.42 1014.04 1014.61 1015.10 1015.53 1015.90 1016.21 1016.46 1016.66 1016.82 1016.93 1017.01 1017.08 1017.15 1017.23 1017.33 1017.47 1017.65 1017.87 1018.12 1018.37 1018.63 1018.85 1019.05 1019.19 1019.30 1019.36 1019.41 1019.45
1009.86 1009.25 1008.76 1008.39 1008.15 1008.06 1008.12 1008.33 1008.67 1009.14 1009.72 1010.37 1011.08 1011.81 1012.55 1013.28 1013.97 1014.60 1015.17 1015.66 1016.07 1016.40 1016.63 1016.79 1016.87 1016.91 1016.92 1016.93 1016.96 1017.03 1017.16 1017.36 1017.61 1017.91 1018.23 1018.56 1018.86 1019.12 1019.34 1019.50 1019.61 1019.69 1019.75
1010.10 1009.41 1008.81 1008.33 1007.97 1007.76 1007.69 1007.77 1008.00 1008.38 1008.88 1009.50 1010.20 1010.98 1011.80 1012.63 1013.45 1014.22 1014.92 1015.53 1016.03 1016.41 1016.68 1016.83 1016.88 1016.87 1016.82 1016.78 1016.76 1016.81 1016.93 1017.13 1017.41 1017.74 1018.11 1018.48 1018.84 1019.15 1019.40 1019.59 1019.73 1019.83 1019.91
1010.44 1009.68 1008.99 1008.41 1007.94 1007.61 1007.42 1007.38 1007.51 1007.80 1008.24 1008.82 1009.53 1010.35 1011.23 1012.16 1013.08 1013.97 1014.78 1015.48 1016.06 1016.48 1016.76 1016.90 1016.92 1016.87 1016.78 1016.69 1016.65 1016.67 1016.79 1017.00 1017.28 1017.64 1018.03 1018.42 1018.79 1019.11 1019.37 1019.57 1019.71 1019.81 1019.89
1010.85 1010.05 1009.31 1008.66 1008.11 1007.69 1007.40 1007.28 1007.32 1007.53 1007.92 1008.47 1009.17 1010.00 1010.93 1011.91 1012.90 1013.86 1014.74 1015.50 1016.11 1016.55 1016.83 1016.95 1016.96 1016.88 1016.76 1016.65 1016.59 1016.61 1016.73 1016.94 1017.24 1017.59 1017.98 1018.37 1018.72 1019.03 1019.26 1019.44 1019.55 1019.64 1019.70
1011.32 1010.53 1009.79 1009.11 1008.53 1008.06 1007.72 1007.53 1007.51 1007.66 1008.00 1008.50 1009.17 1009.98 1010.90 1011.89 1012.90 1013.87 1014.76 1015.52 1016.13 1016.58 1016.84 1016.96 1016.95 1016.86 1016.74 1016.63 1016.58 1016.61 1016.73 1016.95 1017.25 1017.60 1017.97 1018.32 1018.64 1018.90 1019.08 1019.21 1019.28 1019.33 1019.37
Thickness
5791 5789 5787 5785 5781 5777 5774 5772 5769 5766 5764 5760 5757 5755 5753 5753 5753 5753 5752 5751 5751 5750 5749 5749 5748 5747 5746 5746 5745 5744 5743 5742 5741 5738 5735 5737 5738 5738 5737 5737 5736 5734 5733
5789 5789 5788 5785 5782 5778 5775 5773 5770 5768 5765 5763 5760 5758 5756 5755 5754 5753 5753 5752 5751 5751 5750 5749 5748 5747 5746 5745 5745 5743 5741 5740 5740 5736 5731 5729 5730 5733 5735 5734 5733 5732 5730
5791 5790 5788 5786 5783 5780 5777 5776 5773 5770 5767 5764 5761 5758 5756 5754 5753 5752 5752 5752 5751 5751 5749 5749 5748 5748 5746 5745 5744 5743 5741 5738 5738 5737 5733 5727 5724 5726 5728 5729 5729 5728 5727
5799 5795 5792 5788 5786 5784 5781 5778 5775 5772 5769 5766 5763 5758 5754 5750 5751 5751 5751 5751 5751 5750 5749 5748 5748 5747 5746 5745 5745 5744 5742 5739 5736 5735 5734 5733 5731 5724 5721 5723 5724 5724 5722
5805 5800 5797 5794 5791 5789 5784 5780 5776 5773 5770 5768 5764 5760 5756 5753 5752 5751 5750 5749 5750 5749 5749 5748 5748 5747 5746 5745 5744 5743 5741 5740 5737 5734 5733 5731 5729 5726 5721 5717 5717 5717 5717
5809 5805 5802 5798 5793 5790 5786 5782 5777 5773 5771 5768 5765 5761 5757 5753 5750 5749 5748 5747 5747 5748 5748 5747 5747 5746 5745 5744 5743 5742 5740 5739 5737 5735 5733 5730 5727 5723 5720 5716 5713 5711 5710
5811 5805 5801 5798 5794 5790 5786 5782 5777 5774 5772 5769 5766 5763 5759 5755 5752 5749 5747 5746 5745 5745 5745 5746 5745 5745 5744 5743 5741 5740 5738 5737 5735 5733 5731 5730 5728 5725 5721 5716 5711 5708 5706
5814 5809 5807 5803 5798 5794 5789 5785 5780 5776 5773 5770 5767 5764 5761 5757 5753 5751 5749 5747 5745 5744 5744 5744 5743 5742 5741 5741 5739 5737 5736 5735 5733 5731 5729 5727 5726 5724 5721 5717 5711 5705 5701
5817 5815 5812 5807 5802 5797 5793 5789 5783 5778 5774 5772 5768 5764 5761 5758 5754 5752 5749 5747 5745 5744 5742 5741 5740 5739 5738 5737 5736 5734 5732 5731 5730 5728 5726 5725 5723 5722 5719 5717 5713 5707 5699
5819 5817 5814 5810 5805 5801 5796 5792 5786 5781 5776 5772 5769 5765 5761 5758 5755 5751 5748 5746 5744 5742 5740 5738 5736 5735 5734 5733 5732 5730 5729 5728 5726 5725 5723 5721 5720 5718 5716 5713 5711 5708 5702
5821 5818 5815 5811 5807 5802 5797 5792 5786 5781 5776 5772 5768 5764 5760 5756 5753 5749 5747 5744 5742 5739 5737 5735 5733 5731 5730 5729 5727 5726 5724 5723 5722 5721 5719 5717 5716 5714 5712 5709 5707 5703 5700
5822 5819 5815 5811 5806 5801 5796 5792 5787 5781 5777 5772 5767 5762 5759 5755 5751 5748 5745 5742 5739 5736 5734 5732 5729 5727 5725 5724 5723 5721 5720 5718 5717 5715 5714 5712 5711 5709 5707 5705 5701 5698 5695
5818 5816 5813 5809 5805 5801 5796 5792 5787 5782 5777 5772 5766 5761 5757 5753 5749 5746 5743 5740 5736 5733 5730 5728 5726 5723 5721 5719 5718 5716 5715 5713 5711 5710 5708 5707 5706 5703 5701 5699 5696 5692 5689
5814 5812 5809 5807 5804 5800 5796 5791 5786 5782 5776 5770 5764 5759 5755 5752 5748 5744 5740 5736 5733 5730 5727 5724 5722 5720 5718 5715 5713 5711 5710 5708 5706 5705 5703 5702 5700 5698 5696 5693 5690 5687 5682
5811 5810 5807 5804 5801 5797 5793 5790 5785 5781 5775 5769 5762 5758 5754 5751 5746 5742 5737 5734 5730 5726 5723 5721 5717 5715 5714 5711 5709 5707 5705 5703 5701 5699 5698 5696 5695 5693 5691 5688 5685 5681 5676
5811 5809 5807 5804 5800 5797 5792 5788 5783 5779 5774 5767 5761 5757 5752 5747 5742 5738 5734 5730 5725 5721 5719 5716 5713 5711 5709 5706 5705 5703 5700 5698 5696 5693 5691 5690 5689 5687 5685 5682 5680 5677 5672
5811 5809 5807 5805 5802 5799 5794 5788 5783 5778 5771 5766 5760 5755 5750 5744 5740 5735 5729 5725 5721 5717 5714 5711 5709 5706 5703 5701 5700 5698 5695 5692 5690 5687 5686 5685 5683 5681 5679 5676 5673 5669 5666
5809 5809 5807 5804 5802 5798 5793 5786 5779 5773 5768 5762 5757 5751 5745 5740 5735 5730 5725 5721 5717 5713 5710 5706 5704 5701 5699 5696 5694 5692 5689 5686 5683 5681 5680 5678 5676 5675 5672 5670 5665 5661 5658
5808 5807 5807 5804 5799 5795 5789 5781 5773 5768 5763 5758 5753 5748 5742 5736 5730 5726 5721 5716 5712 5708 5705 5702 5699 5696 5693 5691 5689 5687 5683 5680 5677 5675 5673 5672 5670 5668 5666 5663 5659 5655 5651
5804 5803 5801 5799 5794 5790 5785 5776 5769 5764 5760 5755 5751 5745 5739 5733 5727 5722 5717 5712 5708 5704 5701 5697 5694 5692 5689 5686 5683 5681 5678 5674 5671 5668 5666 5665 5664 5662 5659 5656 5653 5648 5644
5799 5799 5796 5792 5789 5785 5781 5773 5766 5762 5758 5752 5746 5740 5735 5729 5724 5718 5713 5708 5704 5699 5695 5692 5689 5686 5684 5681 5678 5675 5672 5669 5665 5663 5660 5658 5657 5655 5652 5650 5646 5642 5638
5792 5792 5788 5784 5781 5778 5773 5768 5763 5760 5754 5746 5740 5736 5731 5726 5720 5714 5709 5704 5699 5695 5690 5686 5683 5681 5678 5676 5673 5670 5667 5664 5660 5657 5654 5652 5650 5648 5645 5642 5639 5635 5631
5782 5783 5780 5777 5774 5772 5769 5763 5759 5755 5749 5741 5735 5731 5726 5721 5716 5711 5705 5700 5695 5691 5686 5683 5679 5676 5673 5670 5668 5665 5661 5658 5655 5651 5648 5645 5643 5641 5638 5635 5631 5628 5625
5771 5772 5770 5767 5765 5763 5761 5759 5755 5750 5744 5737 5731 5725 5720 5715 5710 5706 5702 5697 5692 5688 5684 5680 5676 5673 5669 5665 5662 5659 5656 5652 5649 5645 5642 5639 5636 5633 5630 5627 5624 5621 5617
5760 5760 5760 5759 5758 5755 5752 5750 5748 5744 5738 5733 5726 5720 5715 5711 5706 5701 5697 5694 5691 5688 5683 5678 5674 5669 5666 5663 5659 5656 5651 5647 5644 5639 5636 5632 5629 5626 5623 5620 5616 5613 5610
5748 5748 5749 5749 5748 5745 5744 5742 5740 5737 5733 5727 5721 5716 5710 5705 5701 5696 5690 5686 5684 5682 5678 5675 5671 5667 5664 5660 5655 5650 5646 5642 5638 5634 5630 5626 5623 5620 5617 5614 5610 5607 5603